sat.trackr.live / text

‹ back to catalog

STARLINK-4555

NORAD 53572 · 2022-101AX

PAYLOAD ACTIVE UNKNOWN

§ Identity

Operator
Country
US
Launch date
2022-08-19
Launch site
AFETR
Launch vehicle
Mass (kg)
RCS (m²)

Purposes: comms

External: N2YO · Heavens-Above · Gunter

§ Orbital elements

Epoch: 2026-05-25T02:09:27.808416Z

Period
95.44 min
Inclination
53.2135°
Eccentricity
0.0001564
Mean motion
15.08837923 rev/d
Perigee alt
538.7 km
Apogee alt
540.8 km
Semi-major
6,917.9 km
B*
4.1199e-5
RAAN
70.8177°
Arg perigee
81.7196°
Mean anomaly
278.3974°
Rev number
20,798

§ Raw data

STARLINK-45551 53572U 22101AX  26145.08990519  .00000368  00000+0  41199-4 0  99912 53572  53.2135  70.8177 0001564  81.7196 278.3974 15.08837923207983

JSON: /api/v1/satellites/53572 · /tle

For live sub-satellite position, see the globe view (requires WebGL).

§ Visibility from observer

Set your observer location to see the next 7 days of passes ≥ 10°. The values pass through the URL so the page stays shareable.

No JS? Fill the form by hand. The geolocation button needs JavaScript.